Terminal Aerodrome Forecast
Issued by NWS

Home | Current Version | Previous Version | Text Only | Print | Product List | Glossary On
Versions: 1 2 3 4 5 6 7 8 9 10 11 12 13 14 15 16 17 18 19 20 21 22 23
000
FTPA31 PHFO 011100
TAFMKK
TAF
PHMK 011134Z 0112/0212 02005KT P6SM FEW030 SCT040
     FM012100 18008KT P6SM VCSH FEW030 BKN045
     FM020500 02005KT P6SM FEW030 SCT040=

USA.gov is the U.S. government's official web portal to all federal, state and local government web resources and services.